Home > Weather > Słupsk > Past weeks

Flag for Poland Past Weather in Słupsk, Poland — Yesterday and Last 2 Weeks

Now
56 °F

Passing clouds.


Feels Like: 56 °F
Forecast: 56 / 67 °F
Wind: 3 mph from Southwest

Location: Leba

Current Time: Jun 27, 2016 at 4:15:30 AM

Latest Report: Jun 27, 2016 at 3:00 AM


Visibility: 13 mi

Pressure: 30.01 "Hg

Humidity: 86%

Dew Point: 52 °F

Location of SłupskLocation

Past Weather in Słupsk — Graph

°F

Słupsk Temperature Yesterday

Maximum temperature yesterday: 71 °F (at 10:00 AM)
Minimum temperature yesterday: 62 °F (at 10:00 PM)
Average temperature yesterday: 67 °F

High & Low Weather Summary for the Past Weeks

 TemperatureHumidityPressure
High90 °F (Jun 24, 3:00 PM)97% (Jun 17, 1:00 PM)30.29 "Hg (Jun 17, 1:00 PM)
Low39 °F (Jun 12, 5:00 AM)42% (Jun 24, 4:00 PM)29.29 "Hg (Jun 17, 5:00 PM)
Average63 °F77%29.90 "Hg
* Reported Jun 12 4:00 AM — Jun 27 3:00 AM, Słupsk, Weather by CustomWeather, © 2016

Note: Actual official high and low records may vary slightly from our data, if they occured in-between our weather recording intervals... More about our weather records

Advertising

Słupsk Weather History for the Previous 24 Hours

Scroll right to see more
 ConditionsComfort  
Time TempWeatherWind HumidityBarometerVisibility
3:00 AM
Mon, Jun 27
56 °FPassing clouds.3 mph86%30.01 "Hg12 mi
2:00 AM60 °FOvercast.6 mph83%29.99 "Hg12 mi
1:00 AMN/APassing clouds.23 mphN/AN/A3 mi
12:00 AM62 °FOvercast.7 mph80%29.99 "Hg12 mi
11:00 PM
Sun, Jun 26
N/APassing clouds.28 mphN/AN/A3 mi
10:00 PM62 °FOvercast.7 mph80%30.00 "Hg12 mi
9:00 PM62 °FOvercast.7 mph78%30.00 "Hg12 mi
8:00 PM64 °FOvercast.8 mph76%29.99 "Hg12 mi
7:00 PM65 °FOvercast.10 mph74%29.98 "Hg12 mi
6:00 PMN/APassing clouds.28 mphN/AN/A2 mi
5:00 PM64 °FOvercast.10 mph77%29.99 "Hg12 mi
4:00 PM64 °FOvercast.8 mph82%29.98 "Hg12 mi
3:00 PM64 °FOvercast.8 mph82%29.96 "Hg12 mi
2:00 PM65 °FOvercast.9 mph81%29.96 "Hg12 mi
1:00 PM65 °FOvercast.8 mph85%29.96 "Hg12 mi
12:00 PM68 °FOvercast.7 mph82%29.94 "Hg12 mi
11:00 AM71 °FOvercast.7 mph77%29.91 "Hg12 mi
10:00 AM71 °FPassing clouds.7 mph78%29.89 "Hg12 mi
9:00 AM71 °FOvercast.8 mph85%29.86 "Hg11 mi
8:00 AM70 °FOvercast.6 mph89%29.84 "Hg7 mi
7:00 AM70 °FOvercast.8 mph88%29.84 "Hg11 mi
6:00 AM67 °FScattered clouds.3 mph93%29.83 "Hg7 mi
5:00 AM66 °FPassing clouds.5 mph93%29.82 "Hg7 mi
4:00 AM66 °FPassing clouds.5 mph93%29.81 "Hg9 mi
Weather by CustomWeather, © 2016

See weather overviewHow to use our weather pages